Showing default

GLOBAL-34, 68098

Orbit data source: Space-Track

GLOBAL-34, 68098 is a payload satellite owned by BlackSky Global (US) in LEO that was launched on Thu, 05 Mar 2026 UTC via an ELECTRON launch vehicle from the Rocket Lab Launch Complex (RLLC). Payload-class satellites include a variety of spacecraft equipped with specific instruments for various scientific and technological missions. These include communications satellites like Starlink; space stations such as the ISS; scientific satellites like the Hubble; Earth observation satellites from companies like Planet Labs, Umbra, and HawkEye 360; GPS; miniature CubeSats for education and research; and military/defense satellites.

Loading next visibility...
Identifier
68098, 2026-043A
Orbit
LEO
Country
Flag of USUS
Related business
Manufacturer
LeoStella
Mission
Operational spacecraft
Bus & Motor
BSKY, Unknown motor
Mass
138 kg wet, 134 kg dry
Launch date (UTC)
2026-03-05 (2 months ago)
Launch vehicle
ELECTRON
Launch site
Rocket Lab Launch Complex (RLLC)
Object type
Payload
Rocket body
Debris
Shape & HBR
Unknown shape, 14.5 m
Radar Cross Section
RCS unknown

Expand to show TLE details & history
Last TLE update: 20 hours ago

TLE from 20 hours ago
0 GLOBAL-34
1 68098U 26043A   26120.11365786  .00010008  00000-0  32698-3 0  9994
2 68098  42.0242 138.5294 0006670 296.5893  63.4261 15.31751903  8454
Epoch: 2026-04-30T02:43Z
TLE epoch observation values (Epoch: 2026-04-30T02:43:40.039Z)
Latitude
0.00002°
Longitude
-120.45233°
Altitude
468.211 km
Speed
7.635 km/s
True Right ascension
09h 14m 07s
True Declination
0° 00' 00"
Sunlit
Object was in daylight at epoch
Visualization orbit readout
Latitude
Unknown
Longitude
Unknown
Altitude
Unknown
Speed
Unknown
Apparent Right ascension
Unknown
Apparent Declination
Unknown
Sunlit
N/A
Visualization observer readout
Local Sidereal Time
06:48:00
Azimuth
Unknown
Elevation
Unknown
Doppler factor
Unknown
Orbital elements
Apogee altitude
477.267 km
Perigee altitude
468.128 km
Semi-major axis
6,850.835 km
Eccentricity
0.00067
Inclination
42.0242°
RAAN
138.5294°
Arg. of periapsis
296.5893°
True anomaly
63.49448°
Mean anomaly
63.4261°
Eccentric anomaly
63.46029°
Mean motion
3.82761 °/min
Orbital period
94.05 mins
BSTAR
0.00032698
Loading maneuver chart data...
Computing Atmospheric mass density...
Loading historical data...
Loading historical data...
Loading historical data...
Loading historical data...
Loading historical data...
Loading historical data...
Loading historical data...
Other satellites on launch #43 in the year 2026 (2026-03-05 UTC)

Documentation

Showing up to 5 results
|